Wind_Speed
8 9 8 9 10 10 10 10 9 7 6 6 6 8 4 5 4 4 7 14 20 20 24 22 21 23 17 17 15 12 10 9 7 5 4 2 5 8 9 9 11 10 8
9 9 8 9 10 10 10 11 9 7 8 8 8 8 6 5 3 2 2 9 20 20 26 25 21 22 18 16 15 14 11 9 8 4 4 7 9 10 7 11 12 12 11
10 9 8 9 10 11 10 11 10 9 10 10 9 8 7 6 5 2 1 11 15 26 27 22 21 22 20 17 16 14 11 11 8 9 9 10 9 9 9 13 14 14 13
11 10 8 9 11 11 9 11 11 10 11 10 9 8 9 10 8 1 1 15 17 27 26 27 26 22 20 19 17 14 13 11 11 12 12 10 9 11 12 14 16 18 18
12 10 8 9 10 11 9 11 10 10 10 10 9 9 11 12 12 4 16 17 17 27 33 31 26 22 19 18 16 15 13 12 13 14 11 9 9 14 14 18 16 18 18
12 10 9 10 9 11 10 10 9 8 9 10 11 11 12 17 18 26 19 21 33 41 29 26 24 22 20 18 16 13 12 11 15 13 8 9 11 15 16 18 15 18 17
11 10 10 12 9 10 8 9 8 7 8 10 12 12 13 16 19 23 28 32 33 28 25 21 20 19 18 18 15 14 12 14 14 9 6 10 12 14 17 17 16 17 18
10 12 11 12 11 11 9 8 8 6 7 8 10 12 13 11 17 17 24 30 28 31 22 21 20 19 19 18 16 15 13 13 12 8 8 10 12 14 15 16 15 16 17
10 12 13 13 13 12 11 9 9 7 7 7 7 11 11 14 11 15 19 19 23 19 20 20 20 19 18 18 16 16 13 12 11 11 9 9 12 13 14 16 13 15 16
10 11 13 14 13 12 12 10 10 10 8 8 7 9 10 9 11 12 15 15 19 18 16 16 16 17 16 15 14 12 10 9 8 8 8 9 10 12 13 14 13 13 15
10 9 13 13 14 14 13 13 12 11 12 11 9 9 9 8 8 10 13 15 15 14 15 16 17 14 12 13 11 7 9 7 6 6 5 7 6 8 11 12 12 11 13
10 9 11 11 14 14 15 13 11 14 12 12 12 10 8 8 7 11 12 14 15 13 12 13 12 10 10 11 8 6 4 4 2 7 5 4 4 4 8 9 10 9 10
10 10 7 9 10 11 12 13 12 13 15 10 10 12 10 11 12 13 13 15 16 13 12 11 11 9 8 9 9 6 5 6 5 7 7 4 6 5 4 6 6 6 8
6 4 6 5 6 9 8 9 11 11 13 13 10 10 11 12 13 12 11 11 10 12 10 10 8 9 8 8 8 6 6 7 8 9 5 6 5 5 4 6 5 6 4
8 6 5 6 7 9 11 8 10 8 9 12 10 10 10 11 10 9 7 10 7 7 8 8 6 6 5 4 4 4 4 4 5 7 6 6 4 4 4 4 5 4 4
7 6 4 3 6 9 8 8 7 7 5 7 9 7 7 8 7 7 6 8 5 6 5 4 4 2 2 3 4 4 3 3 4 4 6 6 5 4 4 4 3 4 1
4 2 1 1 2 6 7 6 4 7 4 5 6 7 7 6 4 4 6 5 4 4 2 1 0 1 3 4 4 3 3 2 5 5 5 8 10 10 8 6 7 7 5
1 3 4 5 4 2 4 5 6 5 4 6 6 5 5 5 2 3 3 3 2 1 2 2 3 3 4 4 6 6 6 5 5 6 7 6 9 11 10 9 9 9 9
1 3 6 7 6 4 3 1 2 2 3 4 8 6 5 4 3 4 4 1 2 2 2 3 5 6 4 3 6 7 8 8 6 9 12 12 10 12 14 13 16 14 13
3 4 8 6 6 7 6 3 5 3 1 3 7 8 6 5 5 5 5 2 5 3 0 2 5 4 3 5 7 7 7 8 8 11 12 13 15 15 16 19 21 24 19
10 5 6 11 8 10 6 6 7 4 1 2 5 3 5 4 5 7 7 6 5 2 0 1 2 4 6 6 7 9 12 8 10 12 14 18 16 17 20 18 26 35 25
15 11 5 6 10 9 10 10 6 3 2 3 7 1 2 2 6 7 5 3 4 5 5 4 2 4 7 8 7 10 12 9 10 15 18 18 20 20 20 21 18 17 23
14 14 9 1 8 8 10 9 7 7 6 7 2 1 4 3 8 6 6 2 4 4 5 6 6 9 10 10 11 11 11 13 17 20 21 23 22 21 22 20 22 16 13
13 12 10 6 3 6 8 9 7 8 7 5 6 6 6 4 3 2 4 5 6 7 8 10 10 12 13 15 13 12 15 17 21 23 23 23 22 16 17 15 16 12 12
12 10 10 7 4 4 9 11 9 8 6 5 6 7 6 5 5 5 8 8 7 8 9 11 12 16 16 18 15 13 13 15 19 22 20 18 19 16 12 12 8 9 8
14 12 12 9 5 4 3 7 7 8 7 7 7 8 7 7 8 8 7 6 5 4 4 5 9 12 14 13 12 7 5 10 13 9 10 14 13 12 12 6 9 10 10
Wind_Direction
87 74 73 72 76 79 76 72 65 68 86 96 88 98 111 73 49 148 161 168 173 159 148 138 141 135 124 137 132 127 114 112 109 83 87 81 47 45 35 22 22 16 14
82 74 71 70 82 82 79 76 71 84 92 92 90 93 99 95 95 113 163 178 168 152 143 126 132 146 143 136 132 121 115 110 85 101 81 64 60 50 40 45 40 29 28
83 80 74 79 85 79 77 76 75 79 82 88 89 89 89 71 86 150 54 159 143 143 143 138 141 143 139 136 116 117 110 99 110 98 84 68 55 58 50 54 50 48 47
81 78 86 88 84 84 86 80 75 76 80 87 90 92 88 81 74 45 311 159 175 159 140 144 140 139 138 129 127 122 116 107 105 84 73 66 64 65 54 52 48 57 57
82 77 83 88 86 88 87 80 77 83 86 90 94 89 89 79 68 107 140 151 174 144 128 129 134 133 126 127 124 119 116 111 95 77 66 69 74 71 57 54 50 59 61
86 81 80 83 82 89 89 88 89 92 98 97 94 90 84 66 89 71 141 138 133 122 121 129 130 131 133 133 128 129 118 101 89 83 73 78 79 72 62 57 55 62 64
83 84 80 80 76 82 94 96 92 95 101 96 92 96 89 77 74 78 122 129 129 111 117 120 124 127 127 121 117 116 100 92 83 89 88 81 77 76 69 62 58 64 66
83 80 76 75 75 77 79 86 90 90 111 104 105 102 101 82 70 92 91 106 113 120 121 124 124 124 120 116 121 112 101 92 93 79 84 87 81 78 74 70 62 70 72
78 67 70 73 71 72 77 83 86 82 103 115 109 104 109 106 96 95 104 119 123 125 131 129 127 123 121 120 112 101 101 101 104 92 79 80 81 82 78 78 69 71 78
80 73 70 66 77 74 82 87 88 89 90 102 110 109 107 103 97 89 101 107 112 120 122 116 115 109 109 104 108 107 108 105 93 97 95 79 71 76 77 78 75 72 77
79 76 71 77 74 74 76 80 90 87 96 100 108 103 99 97 78 81 102 109 112 116 115 120 119 121 119 123 109 106 105 98 107 105 85 85 71 67 70 67 72 69 75
95 84 75 78 73 67 71 71 78 85 84 100 103 100 102 96 85 88 98 104 106 107 102 108 100 101 100 106 101 84 98 104 120 94 82 66 78 54 58 62 59 66 71
64 58 61 66 78 78 74 81 80 88 91 87 106 106 99 100 94 93 96 99 103 98 107 110 100 101 103 95 89 96 84 64 48 49 49 51 55 33 36 32 45 48 59
120 96 79 82 103 85 83 92 87 81 94 101 99 104 100 99 102 102 103 105 107 95 97 95 100 105 96 95 92 76 72 66 58 62 50 54 37 20 37 44 41 46 29
138 147 119 103 100 113 110 119 104 97 98 104 95 95 101 105 105 104 110 109 125 123 105 112 110 99 98 99 90 74 49 45 56 38 26 32 39 37 57 49 36 56 41
139 146 120 111 92 91 115 115 111 104 110 122 121 119 110 101 102 117 108 102 107 94 112 112 100 80 37 45 47 39 30 351 2 348 354 352 346 357 11 29 22 12 23
142 111 156 182 136 114 109 110 107 149 164 138 124 127 128 123 121 107 101 83 77 54 28 357 184 13 8 351 317 297 308 345 344 344 333 320 326 345 330 324 317 307 311
151 177 197 231 236 167 130 134 128 122 154 177 154 142 112 103 120 104 123 139 81 359 345 280 285 294 282 272 295 303 312 310 307 320 297 268 309 312 306 294 285 279 283
247 252 212 221 239 217 222 181 136 171 176 232 205 191 180 171 188 198 198 214 264 265 269 218 211 229 256 286 321 308 279 280 277 289 296 318 301 278 284 289 293 293 276
20 303 262 234 235 241 228 237 238 222 207 263 257 232 218 220 219 225 207 228 267 230 158 181 176 208 277 330 338 334 298 284 279 283 298 296 293 285 279 277 284 274 268
8 9 251 237 224 244 229 233 249 266 39 314 274 231 193 245 263 231 233 264 265 195 208 277 323 316 330 331 335 336 309 298 287 284 301 303 318 315 291 290 290 297 265
6 360 343 253 215 215 234 234 249 286 325 277 247 250 185 218 277 263 220 265 283 241 239 239 245 279 300 319 326 308 327 297 297 293 296 298 302 307 316 278 291 329 296
13 2 10 351 193 205 220 227 227 226 222 253 279 351 283 351 3 233 253 264 327 294 239 280 283 287 288 296 306 310 315 303 290 291 295 295 297 302 300 306 287 298 316
21 16 1 7 220 217 209 232 239 240 223 239 266 270 323 285 356 289 296 296 285 282 283 282 284 278 288 290 295 303 299 298 292 283 283 290 295 290 305 305 293 318 288
28 31 24 5 357 264 240 238 233 217 222 233 243 263 290 294 316 292 276 273 277 279 287 291 288 281 274 272 282 300 312 314 308 290 276 280 284 286 296 310 317 318 323
34 50 31 12 333 275 213 224 225 228 232 238 259 273 280 271 278 268 259 259 261 252 270 308 321 295 281 272 291 302 349 1 360 337 283 284 285 269 274 312 288 303 315
Height
5883 5882 5882 5882 5881 5881 5881 5881 5881 5881 5881 5881 5880 5880 5879 5879 5879 5878 5877 5877 5879 5881 5884 5887 5889 5891 5892 5894 5895 5895 5896 5895 5896 5896 5895 5893 5894 5892 5890 5888 5885 5884 5882
5882 5883 5883 5882 5882 5882 5883 5882 5882 5882 5882 5882 5881 5881 5880 5879 5879 5878 5877 5877 5875 5878 5883 5888 5892 5893 5896 5896 5896 5897 5898 5897 5897 5898 5897 5897 5894 5893 5892 5889 5887 5885 5882
5883 5883 5883 5884 5885 5884 5884 5884 5884 5884 5883 5883 5883 5882 5881 5880 5879 5879 5878 5879 5877 5881 5885 5890 5893 5894 5897 5897 5898 5899 5899 5899 5899 5898 5897 5896 5896 5894 5893 5890 5888 5886 5883
5885 5885 5886 5886 5886 5885 5886 5885 5886 5885 5885 5885 5885 5885 5884 5883 5880 5877 5879 5880 5883 5883 5887 5890 5894 5896 5898 5897 5898 5900 5900 5901 5901 5899 5897 5898 5899 5896 5893 5891 5888 5885 5884
5885 5886 5887 5886 5886 5887 5887 5887 5887 5886 5887 5888 5887 5887 5886 5885 5882 5879 5880 5883 5884 5885 5886 5892 5897 5899 5900 5900 5902 5903 5902 5902 5901 5899 5900 5900 5899 5895 5894 5891 5890 5888 5886
5886 5888 5889 5888 5888 5888 5888 5888 5888 5888 5889 5890 5890 5890 5889 5886 5884 5882 5882 5885 5886 5888 5894 5896 5898 5900 5902 5903 5903 5904 5904 5903 5900 5900 5902 5901 5900 5896 5894 5893 5893 5890 5889
5889 5890 5891 5890 5890 5889 5890 5890 5891 5892 5893 5892 5892 5893 5893 5891 5890 5890 5888 5887 5889 5891 5895 5898 5901 5903 5905 5904 5905 5905 5904 5902 5902 5902 5903 5901 5900 5898 5894 5894 5895 5893 5891
5893 5892 5892 5892 5892 5891 5892 5893 5894 5894 5894 5894 5894 5895 5896 5895 5894 5896 5895 5892 5895 5895 5898 5900 5903 5905 5903 5903 5904 5904 5904 5903 5905 5905 5903 5901 5900 5898 5896 5895 5896 5895 5894
5895 5894 5894 5894 5894 5894 5894 5895 5895 5897 5897 5896 5897 5898 5898 5899 5899 5899 5900 5900 5898 5900 5902 5902 5903 5903 5905 5905 5906 5906 5906 5906 5907 5905 5905 5903 5900 5898 5897 5896 5897 5896 5895
5897 5897 5896 5897 5896 5896 5896 5897 5898 5898 5899 5899 5899 5900 5901 5901 5902 5902 5903 5902 5902 5902 5905 5905 5905 5905 5907 5907 5909 5909 5908 5908 5907 5906 5905 5904 5903 5900 5898 5898 5899 5898 5896
5898 5899 5898 5899 5899 5899 5899 5899 5900 5900 5900 5900 5901 5902 5904 5905 5904 5904 5903 5904 5904 5906 5906 5907 5907 5907 5907 5909 5909 5908 5909 5908 5908 5908 5908 5906 5906 5903 5901 5901 5901 5901 5899
5901 5901 5900 5902 5903 5903 5903 5904 5903 5902 5903 5902 5903 5904 5905 5907 5906 5905 5905 5905 5907 5908 5909 5909 5910 5909 5909 5911 5912 5912 5911 5912 5911 5910 5909 5908 5907 5906 5904 5903 5904 5903 5901
5901 5902 5902 5905 5905 5906 5906 5906 5905 5905 5904 5906 5905 5906 5906 5906 5908 5908 5908 5909 5908 5909 5910 5911 5912 5913 5912 5912 5912 5913 5913 5913 5913 5911 5912 5911 5909 5909 5906 5906 5905 5905 5904
5906 5905 5905 5906 5908 5908 5908 5909 5908 5907 5907 5907 5908 5909 5909 5909 5909 5910 5910 5911 5910 5910 5911 5911 5913 5914 5914 5913 5912 5915 5914 5914 5916 5914 5913 5911 5911 5910 5908 5907 5907 5907 5906
5907 5907 5908 5908 5908 5908 5908 5909 5909 5910 5909 5909 5909 5911 5912 5912 5913 5913 5914 5912 5912 5912 5913 5914 5916 5915 5915 5915 5914 5915 5915 5916 5916 5913 5912 5912 5910 5910 5909 5907 5907 5907 5905
5907 5907 5906 5907 5907 5907 5907 5908 5910 5910 5911 5911 5911 5912 5913 5913 5915 5916 5916 5915 5915 5916 5915 5916 5915 5916 5915 5914 5914 5916 5918 5918 5917 5915 5913 5912 5911 5911 5911 5909 5908 5907 5906
5906 5906 5906 5906 5907 5909 5910 5909 5911 5911 5913 5912 5913 5914 5915 5916 5917 5917 5917 5917 5917 5915 5915 5916 5917 5917 5915 5915 5916 5918 5918 5918 5916 5914 5912 5912 5913 5914 5912 5910 5909 5908 5908
5906 5907 5906 5906 5907 5908 5908 5909 5910 5911 5913 5914 5914 5913 5914 5916 5917 5917 5917 5917 5916 5916 5916 5916 5916 5917 5915 5917 5917 5917 5915 5915 5913 5912 5912 5911 5911 5912 5912 5910 5906 5904 5905
5906 5907 5907 5906 5906 5907 5909 5910 5909 5910 5911 5912 5914 5914 5915 5916 5917 5917 5917 5917 5917 5917 5917 5917 5916 5916 5917 5917 5916 5915 5914 5913 5911 5911 5910 5909 5910 5910 5909 5908 5903 5896 5904
5907 5906 5905 5906 5906 5906 5908 5908 5908 5909 5909 5911 5912 5912 5913 5915 5916 5917 5917 5917 5917 5917 5917 5917 5917 5916 5915 5915 5914 5913 5912 5911 5910 5909 5909 5909 5909 5908 5907 5906 5903 5900 5900
5905 5905 5904 5904 5906 5905 5907 5907 5906 5908 5910 5911 5911 5911 5910 5914 5916 5917 5917 5916 5916 5915 5915 5915 5915 5913 5911 5911 5912 5910 5908 5908 5908 5908 5907 5905 5905 5905 5904 5901 5898 5896 5895
5904 5904 5904 5902 5905 5906 5905 5905 5907 5908 5908 5910 5910 5911 5911 5911 5913 5915 5912 5913 5913 5913 5913 5913 5912 5912 5910 5910 5910 5909 5906 5907 5906 5905 5905 5904 5903 5901 5898 5897 5895 5891 5890
5905 5904 5903 5903 5903 5906 5905 5904 5907 5908 5911 5912 5911 5909 5910 5909 5909 5912 5912 5912 5912 5911 5911 5911 5911 5911 5908 5907 5907 5908 5907 5905 5904 5902 5902 5900 5900 5899 5896 5896 5893 5894 5891
5907 5904 5903 5902 5902 5903 5905 5904 5907 5908 5910 5909 5910 5910 5911 5908 5909 5910 5911 5910 5909 5909 5908 5908 5907 5906 5906 5905 5904 5904 5904 5903 5899 5898 5897 5896 5896 5896 5895 5894 5890 5892 5892
5907 5905 5904 5902 5901 5901 5902 5902 5903 5906 5907 5908 5909 5909 5908 5908 5908 5907 5908 5908 5907 5906 5905 5904 5903 5901 5902 5900 5901 5901 5901 5899 5895 5891 5892 5892 5891 5891 5892 5892 5890 5892 5891
5907 5905 5905 5903 5901 5901 5900 5901 5902 5903 5904 5906 5907 5907 5906 5906 5907 5907 5907 5906 5905 5904 5902 5901 5899 5897 5896 5897 5898 5898 5897 5896 5893 5889 5888 5889 5888 5890 5889 5890 5890 5889 5890